Weather observations for the past three days for
Pope Air Force Base
| Date | Time (edt) | Wind (mph) | Vis. (mi.) | Weather | Sky Cond. | Temperature (ºF) | Relative Humidity | Wind Chill (°F) | Heat Index (°F) | Pressure | Precipitation (in) | ||||||
|---|---|---|---|---|---|---|---|---|---|---|---|---|---|---|---|---|---|
| Air | Dwpt | 6 hour | altimeter (in) | sea level (mb) | 1 hr | 3 hr | 6 hr | ||||||||||
| Max. | Min. | ||||||||||||||||
| 06 | 07:55 | S 12 G 21 | 10.00 | Mostly Cloudy | BKN170 | 67.3 | 55.9 | 67.3 | 61.5 | 67% | 29.95 | 1014.3 | |||||
| 06 | 06:55 | S 8 | 10.00 | Mostly Cloudy | FEW100 SCT170 BKN190 | 63.9 | 55.4 | 74% | 29.95 | 1014.3 | |||||||
| 06 | 05:55 | S 9 | 10.00 | Overcast | SCT100 OVC180 | 62.8 | 55.4 | 77% | 29.95 | 1014.3 | |||||||
| 06 | 04:55 | SW 7 | 10.00 | Overcast | FEW120 OVC200 | 63 | 55.9 | 78% | 29.97 | 1015.0 | |||||||
| 06 | 03:55 | S 9 | 10.00 | Fair | CLR | 63.7 | 56.7 | 78% | 29.95 | 1014.3 | |||||||
| 06 | 02:55 | S 8 | 10.00 | Mostly Cloudy | BKN130 | 63.5 | 55.4 | 75% | 29.96 | 1014.7 | |||||||
| 06 | 01:55 | S 12 | 10.00 | Fair | CLR | 64 | 55.2 | 75.4 | 64 | 73% | 29.98 | 1015.3 | |||||
| 06 | 00:55 | S 13 | 10.00 | Fair | CLR | 65.5 | 55 | 69% | 29.99 | 1015.7 | |||||||
| 05 | 23:55 | S 15 | 10.00 | Fair | CLR | 66.7 | 55.4 | 67% | 29.99 | 1015.7 | |||||||
| 05 | 22:55 | S 13 | 10.00 | Fair | CLR | 67.8 | 54.7 | 63% | 30 | 1016.0 | |||||||
| 05 | 21:55 | S 13 G 21 | 10.00 | Fair | CLR | 69.6 | 54.1 | 58% | 29.99 | 1015.7 | |||||||
| 05 | 20:55 | S 13 G 21 | 10.00 | Fair | CLR | 72.3 | 54.1 | 53% | 29.97 | 1015.0 | |||||||
| 05 | 19:55 | S 16 G 23 | 10.00 | Fair | CLR | 75.6 | 53.2 | 82.8 | 75.6 | 46% | 78 | 29.95 | 1014.4 | ||||
| 05 | 18:55 | S 16 | 10.00 | Fair | CLR | 79 | 51.8 | 39% | 79 | 29.94 | 1014.0 | ||||||
| 05 | 17:55 | S 16 G 23 | 10.00 | Partly Cloudy | SCT065 | 80.1 | 49.1 | 34% | 80 | 29.95 | 1014.4 | ||||||
| 05 | 16:55 | S 10 | 10.00 | Fair | CLR | 82.2 | 48.6 | 31% | 81 | 29.95 | 1014.4 | ||||||
| 05 | 15:55 | S 14 G 20 | 10.00 | Fair | CLR | 81 | 49.1 | 33% | 80 | 29.96 | 1014.7 | ||||||
| 05 | 14:55 | S 9 G 20 | 10.00 | A Few Clouds | FEW065 | 80.6 | 48.7 | 33% | 80 | 29.99 | 1015.7 | ||||||
| 05 | 13:55 | S 14 G 22 | 10.00 | Partly Cloudy | SCT060 | 79.9 | 49.8 | 80.6 | 60.4 | 35% | 79 | 30.01 | 1016.4 | ||||
| 05 | 12:55 | S 14 G 17 | 10.00 | Fair | CLR | 78.4 | 50.7 | 38% | 79 | 30.02 | 1016.7 | ||||||
| 05 | 11:55 | SW 12 | 10.00 | Fair | CLR | 77 | 51.4 | 41% | 78 | 30.04 | 1017.4 | ||||||
| 05 | 10:55 | SW 9 | 10.00 | Fair | CLR | 74.1 | 53.1 | 48% | 30.05 | 1017.7 | |||||||
| 05 | 09:55 | SW 12 | 10.00 | Fair | CLR | 70.7 | 53.2 | 54% | 30.05 | 1017.7 | |||||||
| 05 | 08:55 | W 8 | 10.00 | Fair | CLR | 65.8 | 52.5 | 62% | 30.05 | 1017.8 | |||||||
| 05 | 07:55 | SW 7 | 9.00 | Fair | CLR | 60.4 | 49.8 | 62.8 | 54.3 | 68% | 30.04 | 1017.4 | |||||
| 05 | 06:55 | SW 3 | 10.00 | Fair | CLR | 55 | 48.6 | 79% | 30.03 | 1017.1 | |||||||
| 05 | 05:55 | SW 5 | 10.00 | Fair | CLR | 54.9 | 47.5 | 76% | 30 | 1016.1 | |||||||
| 05 | 04:55 | SW 6 | 10.00 | Fair | CLR | 56.5 | 47.5 | 72% | 30 | 1016.0 | |||||||
| 05 | 03:55 | S 9 | 10.00 | Fair | CLR | 60.6 | 47.5 | 62% | 29.99 | 1015.7 | |||||||
| 05 | 02:55 | S 8 | 10.00 | Fair | CLR | 61.3 | 46.4 | 58% | 29.99 | 1015.7 | |||||||
| 05 | 01:55 | S 8 | 10.00 | Fair | CLR | 63 | 46.6 | 75 | 63 | 55% | 29.99 | 1015.7 | |||||
| 05 | 00:55 | S 10 | 10.00 | Fair | CLR | 64.2 | 46.8 | 53% | 30 | 1016.0 | |||||||
| 04 | 23:55 | S 15 | 10.00 | Fair | CLR | 65.5 | 46.9 | 51% | 30 | 1016.0 | |||||||
| 04 | 22:55 | S 12 G 20 | 10.00 | Fair | CLR | 66.6 | 47.8 | 51% | 30 | 1016.0 | |||||||
| 04 | 21:55 | S 12 | 10.00 | Fair | CLR | 68.7 | 48.7 | 49% | 29.99 | 1015.7 | |||||||
| 04 | 20:55 | S 14 | 10.00 | Fair | CLR | 71.2 | 49.5 | 46% | 29.97 | 1015.1 | |||||||
| 04 | 19:55 | S 7 | 10.00 | Fair | CLR | 75 | 42.3 | 81.7 | 75 | 31% | 77 | 29.95 | 1014.4 | ||||
| 04 | 18:55 | S 14 | 10.00 | Fair | CLR | 78.1 | 40.5 | 26% | 78 | 29.93 | 1013.7 | ||||||
| 04 | 17:55 | S 14 G 20 | 10.00 | Fair | CLR | 79.9 | 39.9 | 24% | 79 | 29.93 | 1013.7 | ||||||
| 04 | 16:55 | SW 13 G 20 | 10.00 | Fair | CLR | 80.6 | 39.4 | 23% | 79 | 29.93 | 1013.7 | ||||||
| 04 | 15:55 | S 9 G 21 | 10.00 | Fair | CLR | 81.3 | 39.9 | 23% | 80 | 29.95 | 1014.4 | ||||||
| 04 | 14:55 | S 13 G 21 | 10.00 | Fair | CLR | 80.1 | 37.8 | 22% | 79 | 29.96 | 1014.7 | ||||||
| 04 | 13:55 | SW 12 | 10.00 | Fair | CLR | 79.5 | 34.9 | 79.5 | 56.8 | 20% | 78 | 29.98 | 1015.4 | ||||
| 04 | 12:55 | W 14 G 18 | 10.00 | Fair | CLR | 77.4 | 37.8 | 24% | 77 | 30 | 1016.1 | ||||||
| 04 | 11:55 | SW 14 | 10.00 | Fair | CLR | 75 | 40.6 | 29% | 77 | 30.02 | 1016.8 | ||||||
| 04 | 10:55 | SW 9 | 10.00 | Fair | CLR | 72 | 44.2 | 37% | 30.03 | 1017.2 | |||||||
| 04 | 09:55 | SW 6 | 10.00 | Fair | CLR | 66 | 48.4 | 53% | 30.04 | 1017.5 | |||||||
| 04 | 08:55 | SW 8 | 10.00 | Fair | CLR | 60.8 | 48.6 | 64% | 30.04 | 1017.5 | |||||||
| 04 | 07:55 | SW 6 | 10.00 | Fair | CLR | 56.7 | 48.7 | 57 | 49.6 | 75% | 30.04 | 1017.5 | |||||
| 04 | 06:55 | SW 5 | 10.00 | Fair | CLR | 51.1 | 47.3 | 87% | 30.05 | 1017.8 | |||||||
| 04 | 05:55 | W 5 | 10.00 | Fair | CLR | 51.3 | 46.6 | 84% | 30.05 | 1017.8 | |||||||
| 04 | 04:55 | SW 7 | 10.00 | Fair | CLR | 52.2 | 46.6 | 81% | 30.04 | 1017.5 | |||||||
| 04 | 03:55 | SW 8 | 10.00 | Fair | CLR | 51.8 | 45.9 | 80% | 30.04 | 1017.5 | |||||||
| 04 | 02:55 | S 8 | 10.00 | Fair | CLR | 53.8 | 45.3 | 73% | 30.04 | 1017.5 | |||||||
| 04 | 01:55 | S 10 | 10.00 | Fair | CLR | 55.2 | 44.8 | 63.9 | 45.1 | 68% | 30.04 | 1017.5 | |||||
| 04 | 00:55 | S 10 | 10.00 | Fair | CLR | 48.2 | 43.3 | 83% | 44 | 30.05 | 1017.9 | ||||||
| 03 | 23:55 | Calm | 10.00 | Fair | CLR | 46.8 | 42.3 | 84% | 30.05 | 1017.9 | |||||||
| 03 | 22:55 | Calm | 10.00 | Fair | CLR | 47.5 | 42.8 | 84% | 30.05 | 1017.9 | |||||||
| 03 | 21:55 | Calm | 10.00 | Fair | CLR | 50.9 | 43 | 74% | 30.04 | 1017.5 | |||||||
| 03 | 20:55 | Calm | 10.00 | Fair | CLR | 53.1 | 42.4 | 67% | 30.02 | 1016.9 | |||||||
| 03 | 19:55 | Calm | 10.00 | Fair | CLR | 64.4 | 36.1 | 70.7 | 64.4 | 35% | 29.99 | 1015.8 | |||||
| 03 | 18:55 | NW 5 | 10.00 | Fair | CLR | 68.7 | 27.1 | 21% | 29.99 | 1015.8 | |||||||
| 03 | 17:55 | W 5 | 10.00 | Fair | CLR | 70.2 | 27.1 | 20% | 30 | 1016.2 | |||||||
| 03 | 16:55 | NW 7 | 10.00 | Fair | CLR | 70.2 | 27.1 | 20% | 30 | 1016.2 | |||||||
| 03 | 15:55 | NW 14 | 10.00 | Fair | CLR | 69.4 | 28.9 | 22% | 30.02 | 1016.9 | |||||||
| 03 | 14:55 | NW 10 | 10.00 | Fair | CLR | 67.8 | 30.7 | 25% | 30.04 | 1017.5 | |||||||
| 03 | 13:55 | NW 14 | 10.00 | Fair | CLR | 68.4 | 32.2 | 68.4 | 47.7 | 26% | 30.07 | 1018.5 | |||||
| 03 | 12:55 | NW 14 G 18 | 10.00 | Fair | CLR | 64.6 | 33.3 | 31% | 30.08 | 1018.9 | |||||||
| 03 | 11:55 | NW 9 | 10.00 | Fair | CLR | 60.6 | 32.7 | 35% | 30.1 | 1019.6 | |||||||
| 03 | 10:55 | NW 5 G 18 | 10.00 | Fair | CLR | 59 | 31.5 | 35% | 30.11 | 1019.9 | |||||||
| 03 | 09:55 | N 12 | 10.00 | Fair | CLR | 57 | 33.6 | 41% | 30.11 | 1019.9 | |||||||
| 03 | 08:55 | NW 7 | 10.00 | Fair | CLR | 53.8 | 38.8 | 57% | 30.11 | 1019.9 | |||||||
| Date | Time (edt) | Wind (mph) | Vis. (mi.) | Weather | Sky Cond. | Air | Dwpt | Max. | Min. | Relative Humidity | Wind Chill (°F) | Heat Index (°F) | altimeter (in) | sea level (mb) | 1 hr | 3 hr | 6 hr |
| 6 hour | |||||||||||||||||
| Temperature (ºF) | Pressure | Precipitation (in) | |||||||||||||||